Location: Radom
(51.4061°N, 21.1577°E)
Time: 13:38:39
(UTC+01:00)

ISS - Visible Passes

Search period start: 21 January 2021 00:00
Search period end: 31 January 2021 00:00
Orbit: 418 x 419 km, 51.6° (Epoch: 21 January)

Date Brightness Start Highest point End Pass type
(mag) Time Alt. Az. Time Alt. Az. Time Alt. Az.
21 Jan -2.5 17:56:17 10° SSW 17:59:12 28° SSE 17:59:24 27° SE visible
21 Jan -0.2 19:32:21 10° WSW 19:32:22 10° WSW 19:32:22 10° WSW visible
22 Jan -1.9 17:09:05 10° SSW 17:11:37 20° SE 17:13:44 12° E visible
22 Jan -2.2 18:44:39 10° WSW 18:46:41 33° SW 18:46:41 33° SW visible
23 Jan -3.4 17:57:01 10° SW 18:00:17 51° SSE 18:00:58 42° ESE visible
23 Jan -0.3 19:33:38 10° W 19:33:55 12° W 19:33:55 12° W visible
24 Jan -2.8 17:09:28 10° SW 17:12:36 38° SSE 17:15:11 14° E visible
24 Jan -2.4 18:45:51 10° W 18:48:08 40° W 18:48:08 40° W visible
25 Jan -3.8 17:58:05 10° WSW 18:01:28 80° SSE 18:02:20 47° E visible
25 Jan -0.4 19:34:54 10° W 19:35:17 13° W 19:35:17 13° W visible
26 Jan -3.6 17:10:21 10° WSW 17:13:41 65° SSE 17:16:30 14° E visible
26 Jan -2.5 18:47:06 10° W 18:49:27 42° W 18:49:27 42° W visible
27 Jan -3.8 17:59:17 10° W 18:02:40 85° N 18:03:37 45° E visible
27 Jan -0.4 19:36:07 10° W 19:36:33 13° W 19:36:33 13° W visible
28 Jan -3.8 17:11:28 10° W 17:14:51 90° ESE 17:17:47 13° E visible
28 Jan -2.6 18:48:17 10° W 18:50:43 44° W 18:50:43 44° W visible
29 Jan -3.8 18:00:28 10° W 18:03:51 89° NNE 18:04:54 41° E visible
29 Jan -0.5 19:37:18 10° W 19:37:51 14° W 19:37:51 14° W visible
30 Jan -3.8 17:12:37 10° W 17:16:00 84° N 17:19:07 12° E visible
30 Jan -2.7 18:49:26 10° W 18:52:04 43° WSW 18:52:04 43° WSW visible
